Regional Weather Roundup
Issued by NWS Wakefield, VA

Home | Current Version | Previous Version | Text Only | Print | Product List | Glossary On
Versions: 1 2 3 4 5 6 7 8 9 10 11 12 13 14 15 16 17 18 19 20 21 22 23 24 25 26 27 28 29 30 31 32 33 34 35 36
000
ASUS41 KAKQ 230310
RWRAKQ

REGIONAL WEATHER ROUNDUP
NATIONAL WEATHER SERVICE WAKEFIELD VA
1100 PM EDT WED OCT 22 2014

Note: "fair" indicates few or no clouds below 12,000 feet with no
significant weather and/or obstructions to visibility. * = Denotes
station may not report precipitation (e.g., rain,snow,etc.),
thunder or fog.

VAZ042-051-052>054-056-230400-
NORTHERN VIRGINIA

CITY           SKY/WX    TMP DP  RH WIND       PRES   REMARKS
WASH NATIONAL  MOCLDY    56  43  61 NW20G28   29.94F
DULLES         MOCLDY    51  42  71 NW14      29.97F
FORT BELVOIR   PTCLDY    54  43  67 NW14G22   29.95F
QUANTICO       CLOUDY    54  43  66 NW22G28   29.96F
FREDERICKSBRG* CLOUDY    54  44  69 NW8G16    29.96F
STAFFORD*      CLOUDY    52  42  69 NW17G26   30.00F
WARRENTON      PTCLDY    53  47  81 NW13G22   29.98F
CULPEPER*      CLEAR     54  43  66 NW15G22   30.00F
MANASSAS*      CLOUDY    54  45  71 NW14G26   29.97F
LEESBURG*      CLOUDY    52  45  76 N17       29.99S
WINCHESTER     CLEAR     52  37  58 NW13G22   30.02F
FRONT ROYAL*   MOCLDY    50  41  71 NW13G20   30.02F
LURAY*         CLOUDY    54  43  66 NW6       30.05F
$$

VAZ048-049-060>072-079>083-230400-
CENTRAL AND SOUTH CENTRAL VIRGINIA...AND NORTH CENTRAL NORTH CAROLINA

CITY           SKY/WX    TMP DP  RH WIND       PRES   REMARKS
RICHMOND       CLOUDY    54  43  66 NW17G26   29.97R
CHESTERFIELD*  CLEAR    N/A N/A N/A NW8       29.98F
PETERSBURG*    CLEAR     50  44  79 NW7       29.98S
HANOVER        MOCLDY    53  43  68 NW9G20    29.99S
TAPPAHANNOCK*  CLOUDY    54  43  66 NW10      29.94S
CHARLOTTSVILLE CLEAR     52  40  63 N6        30.01R
ORANGE*        CLEAR     52  43  71 NW12      30.01S
LOUISA*        CLEAR     48  43  81 NW6       29.98S
FARMVILLE*     CLEAR     52  41  66 CALM      29.99S
CREWE*         CLEAR     49  43  79 CALM      29.99S
FORT PICKETT*  CLEAR     48  44  85 NW7       29.99S
LUNENBURG*     CLEAR     51  44  76 NW3       29.99S
SOUTH HILL*    CLEAR     54  45  71 NW3       30.04F
LAWRENCEVILLE* CLEAR     47  45  92 CALM      29.98S
ROANOKE RAPIDS CLOUDY    52  45  76 NW9       29.98F
RALEIGH        CLEAR     52  41  66 VRB5      30.03S
$$

VAZ088>098-230400-
SOUTHEAST VIRGINIA

CITY           SKY/WX    TMP DP  RH WIND       PRES   REMARKS
NORFOLK        CLOUDY    57  47  69 N17G32    29.90R
VIRGINIA BEACH CLOUDY    58  50  75 NW20G28   29.88R
NORFOLK NAVAL  CLOUDY    58  48  69 NW15      29.92R
WEST POINT*    CLOUDY    56  46  67 NW9G18    29.94S
NEWPORT NEWS   CLOUDY    57  47  69 NW14      29.92R
LANGLEY AFB    CLOUDY    55  48  76 NW18G26   29.91S
FORT EUSTIS    CLOUDY    56  49  78 NW15G23   29.91R
WILLIAMSBURG*  CLEAR     55  48  76 NW17G25   29.94R
HR EXEC AP*    CLOUDY    54  46  76 NW8       29.94S
FRANKLIN*      CLOUDY    55  46  71 NW7       29.95R
WAKEFIELD      MOCLDY    55  45  68 NW8G21    29.95S
$$

VAZ020-022-025-037-045-230400-
WEST CENTRAL AND SOUTHWEST VIRGINIA

CITY           SKY/WX    TMP DP  RH WIND       PRES   REMARKS
STAUNTON*      CLOUDY    50  41  71 NE3       30.08S
HOT SPRINGS VA CLOUDY    40  37  87 NW17G30   30.05S
LYNCHBURG      CLEAR     51  40  65 NW5       30.04F
DANVILLE       CLEAR     51  40  65 W8        30.05S
SOUTH BOSTON*  NOT AVBL
MARTINSVILLE   CLEAR     48  41  76 CALM      30.10S
ROANOKE        PTCLDY    52  38  58 NW15G24   30.11S
BLACKSBURG     CLOUDY    48  43  81 CALM      30.15R
DUBLIN*        CLOUDY    48  42  79 N7        30.16R
MARION*        CLOUDY    46  39  77 NW8       30.19R
HILLSVILLE*    CLOUDY    44  38  80 NW22G30   30.11S
RICHLANDS*     CLOUDY    45  43  95 NW6       30.19S FOG
WISE*          CLOUDY    43  43 100 N6        30.21S
ABINGDON*      CLOUDY    47  42  83 NW5       30.19S
$$

MDZ021>025-VAZ099-100-230400-
SOUTHERN MARYLAND AND THE DELMARVA PENINSULA

CITY           SKY/WX    TMP DP  RH WIND       PRES   REMARKS
PATUXENT RIVER CLOUDY    55  47  74 NW22G31   29.89S
BAY BRIDGE APT DRIZZLE   54  46  76 NW14G28   29.89S
LEONARDTOWN    CLOUDY    52  45  76 NW7       29.91F
DOVER          LGT RAIN  52  50  93 NW18      29.79F
GEORGETOWN     CLOUDY    53  48  83 NW12G21   29.81F
EASTON         DRIZZLE   55  50  81 N15G23    29.90
CAMBRIDGE      CLOUDY    55  46  71 N17G26    29.86S VSB<1/4
SALISBURY      CLOUDY    56  48  74 NW17G24   29.82F
OCEAN CITY     CLOUDY    53  50  89 NW16G24   29.79S
WALLOPS ISLAND CLOUDY    56  48  74 N16G29    29.82S
ACCOMACK*      CLOUDY    55  46  71 NW12G37   29.84F
$$

NCZ012>017-030>032-230400-
EASTERN NORTH CAROLINA

CITY           SKY/WX    TMP DP  RH WIND       PRES   REMARKS
ELIZABETH CITY CLOUDY    57  48  72 NW15G25   29.92R
AHOSKIE*       CLOUDY    54  46  74 NW5       29.97S
EDENTON*       MOCLDY    55  48  77 NW9       29.94S
CURRITUCK*     CLOUDY    56  48  75 W9G17     29.90F
KILL DEVIL HLS CLOUDY    56  50  79 NW13G24   29.88R
MANTEO         CLOUDY    56  49  77 NW17G23   29.90R
CAPE HATTERAS  CLOUDY    57  50  77 NW15G26   29.90S
TARBORO*       CLEAR     54  46  75 NW5       30.00R
GOLDSBORO      PTCLDY    56  49  76 W6        29.99S
WASHINGTON     PTCLDY    54  47  75 NW5       29.97S
GREENVILLE     CLEAR     55  46  71 NW3       30.00S
NEW BERN       PTCLDY    57  47  69 NW9       29.98F
WILMINGTON     CLEAR     56  45  66 NW8       30.02R
$$

VAZ048-230400-
ELSEWHERE

CITY           SKY/WX    TMP DP  RH WIND       PRES   REMARKS
HARRISBURG PA  CLOUDY    52  42  69 NW13G25   29.94F
BALTIMORE      MOCLDY    54  44  69 NW12G23   29.91F
ANNAPOLIS      LGT RAIN  56  46  69 NW20      29.90S
ANDREWS AFB    CLOUDY    54  45  72 NW15G25   29.92S
WILMINGTON DE  CLOUDY    52  48  86 NW16G24   29.84F
PHILADELPHIA   LGT RAIN  53  48  83 NW17G26   29.80F
WILDWOOD NJ*   CLOUDY    54  46  76 N13G22    29.78S
ATLANTIC CITY  LGT RAIN  52  50  93 NW14G25   29.74F
HENDERSON NC   CLEAR     51  40  66 NW5       30.01F
GREENSBORO     CLEAR     49  39  68 CALM      30.06S
ROCKY MOUNT    CLEAR     54  46  74 NW5       30.00S
FAYETTEVILLE   CLEAR     55  41  59 W9        30.04R
CHARLOTTE      CLEAR     48  38  68 CALM      30.11R
$$

VAZ100-230400-
MARINE

STATION/POSITION TIME  TEMP    WIND        PRES    WAVE   SWELL
                       AIR SEA DIR/SP/G            HT/PER HT/PER
                 (UTC) (F)     (DEG/KT/KT) (MB)    (FT/S) (FT/S)
44066 TX TWR #4  0300   62 67   60/ 25/ 31  999.2F  13/10
CAPE MAY NJ      0300   55 66  330/ 13/ 23 1007.6F
LEWES DE         0300   57 62  340/ 27/ 36 1008.5F
15NM E FENWICK I 0300   58 65  330/ 31/ 41 1005.9F  11/ 7
OCEAN-CITY-INLET 0300   54 64  340/ 17/ 22 1008.1S
WACHAPREAGUE VA  0300   56 62  320/  7/ 23 1010.3F
THOMAS POINT MD  0300   54 62  320/ 20/ 24 1013.0F
GOOSES REEF MD   0300   57     350/ 21/ 27 1012.3F
COVE POINT MD    0300   55     350/ 25/ 29 1011.7F
SOLOMONS ISLAND  0300      64                N/A
BISHOPS HEAD MD  0300   55 58  330/ 15/ 20 1010.7S
PINEY POINT MD   0300          340/ 24/ 29   N/A
POTOMAC MD       0300   57     340/ 19/ 23 1011.5S
CAMBRIDGE MD     0300   56 61  330/ 23/ 28 1010.9F
LEWISETTA VA     0300   56 61  330/ 15/ 18 1012.0F
RAPPAHANNOCK LGT 0300          320/ 32/ 38 1011.2F
STINGRAY PT      0300   57     330/ 21/ 27 1012.5S
YORK RVR RNG VA  0300   56     330/ 23/ 27 1011.7F
YORKTOWN VA      0300   57 66  330/ 22/ 27 1012.5S
JAMESTOWN VA     0300   56     350/ 17/ 25   N/A
DOMINION TERM VA 0300   57     340/ 19/ 26 1012.9R
KIPTOPEKE VA     0300      65  340/ 28/ 33   N/A
CHES BAY BRIDGE  0300   57 66  320/ 29/ 34 1011.6S
CHESAPEAKE LGHT  0200   58     330/ 30/ 34 1010.8R
WILLOUBY STN VA  0300   57     320/ 19/ 21 1011.3S
S CRANEY ISL VA  0300          300/ 15/ 25 1012.3S
CAPE HENRY BUOY  0300      68                N/A     8/ 6   2/11
1ST LANDING BUOY 0300   59     330/ 27/ 35 1011.3S
CAPE CHARLES BUO 0300      68                N/A     6/ 5   2/ 8
64NM E OF VA BCH 0300   60 70  330/ 29/ 37 1007.8R  10/ 8   3/15
DUCK PIER NC     0300   57 68  320/ 21/ 25 1010.8R
44100 DUCK FRF   0300      70                N/A     8/ 7   2/11
44056 DUCK FRF   0300                        N/A     5/ 7
OREGON INLET NC  0300   57 64  300/ 15/ 23 1011.7R
HATTERAS NC      0300   59 66  320/ 24/ 27 1013.0S
DIAMOND SHLS NC  0300   61     310/ 25/ 29 1012.0R   6/ 6   2/ 9
CAPE LOOKOUT NC  0200   60     330/ 21/ 24 1014.7R
$$



USA.gov is the U.S. government's official web portal to all federal, state and local government web resources and services.